Flag for Pakistan Weather past 2 weeks in Peshawar, Pakistan

Now
81 °F

Haze.


Feels Like: 83 °F
Forecast: 73 / 94 °F
Wind: 5 mph from Southwest

Location: Peshawar Airport

Current Time: Sep 5, 2015 at 12:33:49 AM

Latest Report: Sep 5, 2015 at 12:00 AM


Visibility: 2 mi

Pressure: 29.83 "Hg

Humidity: 62%

Dew point: 66 °F

Location of PeshawarLocation

Historic Weather in Peshawar — Graph

°F

Peshawar temperature yesterday

Maximum temperature yesterday: 95 °F (at 4:00 PM)
Minimum temperature yesterday: 73 °F (at 4:59 AM)
Average temperature yesterday: 84 °F

Past Weeks' High & Low Weather Summary

 TemperatureHumidityPressure
High97 °F (Aug 25, 2:00 PM)94% (Aug 20, 11:00 PM)30.24 "Hg (Aug 20, 11:00 PM)
Low72 °F (Aug 28, 6:00 AM)41% (Aug 25, 5:00 PM)29.53 "Hg (Aug 22, 3:00 PM)
Average84 °F63%29.65 "Hg
* Reported Aug 20 11:00 PM — Sep 4 11:00 PM, Peshawar, Weather by CustomWeather, © 2015

Note: Actual official high and low records may vary slightly from our data, if they occured in-between our weather recording intervals... More about our weather records

Advertising

Peshawar weather history for previous 24 hours

 ConditionsComfort  
Time TempWeatherWind HumidityBarometerVisibility
11:00 PM
Fri, Sep 4
82 °FHaze.5 mph62%29.83 "Hg2 mi
10:00 PM82 °FHaze.7 mph62%29.86 "Hg2 mi
9:00 PMN/AHaze.7 mphN/A29.86 "Hg2 mi
8:00 PM86 °FHaze.9 mph55%29.80 "Hg2 mi
7:00 PM88 °FPassing clouds.9 mph55%29.80 "Hg2 mi
6:00 PM90 °FScattered clouds.12 mph52%29.77 "Hg2 mi
5:00 PM91 °FScattered clouds.9 mph49%29.77 "Hg2 mi
4:00 PM95 °FHaze.9 mph50%29.80 "Hg2 mi
3:00 PM93 °FHaze.7 mph53%29.80 "Hg2 mi
2:00 PM93 °FHaze.7 mph53%29.83 "Hg2 mi
1:00 PM91 °FHaze.9 mph52%29.86 "Hg2 mi
12:00 PM90 °FHaze.7 mph55%29.86 "Hg2 mi
11:00 AM88 °FSunny.7 mph55%29.89 "Hg2 mi
10:00 AM86 °FSunny.7 mph59%29.89 "Hg2 mi
9:00 AM82 °FHaze.5 mph62%29.89 "Hg2 mi
8:00 AM79 °FHaze.5 mph70%29.86 "Hg2 mi
7:00 AM75 °FHaze.No wind74%29.86 "Hg2 mi
6:00 AM73 °FHaze.No wind74%29.83 "Hg2 mi
4:59 AM73 °FHaze.No wind74%29.80 "Hg2 mi
4:00 AM75 °FThundershowers. Passing clouds.5 mph74%29.80 "Hg2 mi
3:00 AM77 °FHaze.5 mph74%29.80 "Hg2 mi
2:00 AM77 °FHaze.5 mph74%29.77 "Hg2 mi
1:00 AM77 °FHaze.5 mph74%29.80 "Hg2 mi
12:00 AM79 °FHaze.5 mph70%29.80 "Hg2 mi
Weather by CustomWeather, © 2015

See weather overviewHow to use our weather pages